NOAA 16 DEB, 42333

Orbit data source: Space-Track

NOAA 16 DEB, 42333 is space debris in LEO originally from a launch on Thu, 21 Sep 2000 UTC launched from the Air Force Western Test Range (AFWTR). Debris objects in space refer to the collection of defunct objects orbiting the Earth. Examples of debris include non-operational satellites, rocket bodies, and fragments generated from explosions, collisions, or faulty payload assembly.

Loading next visibility...
NOAA 16 DEB details
Identifier
42333, 2000-055PZ
Orbit
LEO
Last TLE update1 day ago
Origin
Flag of USNOAA (US)
ManufacturerUnknown
MissionSpacecraft
Bus & MotorUnknown
MassUnknown
Launch date (UTC)
2000-09-21 (24 years ago)
Launch vehicleUnknown
Launch site
Air Force Western Test Range (AFWTR)
Object type
Payload
Rocket body
Debris
Shape & HBRUnknown
Radar Cross SectionSmall (<0.1 m²)

Expand to show TLE details & history

TLE from 1 day ago
0 NOAA 16 DEB
1 42333U 00055PZ  24339.14602492  .00010932  00000-0  49990-2 0  9992
2 42333  98.9486  84.9257 0015624  46.0539 314.1924 14.21541377450201
Epoch: 2024-12-04T03:30Z
Definitive object data (Epoch: 2024-12-04T03:30:16.553Z)
Latitude0.00002°
Longitude-41.08864°
Altitude815.221 km
Speed7.45 km/s
True Right ascension05h 39m 42s
True Declination0° 00' 00"
Sunlit
Object was in full shadow at TLE epoch
Visualization TLE readout
Latitude43.81158°
Longitude-48.7235°
Altitude815.326 km
Speed7.456 km/s
Apparent Right ascension09h 01m 39s
Apparent Declination10° 19' 13"
Sunlit
Object is in full shadow
Visualization observer readout
Local Sidereal Time01:18:53
Azimuth65.124° ENE
Elevation-12.249°
Doppler factor1
Orbital elements
Apogee altitude828.555 km
Perigee altitude806.071 km
Semi-major axis7,195.45 km
Eccentricity0.0015624
Inclination98.9486°
RAAN84.9257°
Arg. of periapsis46.0539°
True anomaly314.06385°
Mean anomaly314.1924°
Eccentric anomaly314.12814°
Mean motion3.55595 °/min
BSTAR0.004999
Orbital period101.24 mins
Loading maneuver chart data...
Loading historical data...
Loading historical data...
Loading historical data...
Loading historical data...
Loading historical data...
Loading historical data...
Loading historical data...

NOAA 16 DEB Visibility forecast

Observer location: undefined°, undefined

Span
Click to sort rows by Start time (UTC) header in descending order
Start Az.
Max El. time (UTC)
Max El. Az.
Max El.
End time (UTC)
End Az.
9 mins2024-12-05 06:39:40.091Z137.989° SSE2024-12-05 06:43:40.091Z74.704° E35.439°2024-12-05 06:48:40.091Z359.318° N
6 mins2024-12-05 08:21:40.091Z231.86° WSW2024-12-05 08:23:40.091Z259.963° W19.887°2024-12-05 08:27:40.091Z312.373° NW
6 mins2024-12-05 18:58:40.091Z59.997° ENE2024-12-05 19:01:40.091Z99.6° ESE17.346°2024-12-05 19:04:40.091Z134.681° SE
9 mins2024-12-05 20:37:40.091Z0.04° NNE2024-12-05 20:41:40.091Z282.958° WNW38.939°2024-12-05 20:46:40.091Z212.927° SW
|